Tracking 25620 objects as of 19-May-2022
HD Live streaming from Space Station
objects crossing your sky now

CZ-3A DEB

Track CZ-3A DEB now!
10-day predictions


NORAD ID: 35547
Int'l Code: 2007-003F
Perigee: 410.2 km
Apogee: 12,846.8 km
Inclination: 24.5 °
Period: 245.8 minutes
Semi major axis: 12999 km
RCS: 0.0399 m2 (small)
Launch date: February 2, 2007
Source: People's Republic of China (PRC)
Launch site: Xichang Space Center, China (XSC)

Note: This is SATELLITE DEBRIS
aabbcc
Your satellite tracking list
Your tracking list is empty




NASA's NSSDC Master Catalog

Two Line Element Set (TLE):
1 35547U 07003F   22138.23391691  .00034661  00000-0  19162-1 0  9994
2 35547  24.4885 154.0755 4783467 339.7805   6.3575  5.85749525212964
Source of the keplerian elements: AFSPC